Location: Bothwell
(42.3833°S, 147.0000°E)
Time: 04:40:41
(UTC+10:00)

CAS-4A - Visible Passes

Search period start: 25 September 2022 00:00
Search period end: 05 October 2022 01:00
Orbit: 521 x 535 km, 43.0° (Epoch: 24 September)

Date Brightness Start Highest point End Pass type
(mag) Time Alt. Az. Time Alt. Az. Time Alt. Az.
25 Sep ? 03:16:10 30° E 03:16:10 30° E 03:18:18 10° E visible
25 Sep ? 04:51:19 19° W 04:54:13 77° NNW 04:58:19 10° ENE visible
26 Sep ? 03:03:43 22° E 03:03:43 22° E 03:05:16 10° E visible
26 Sep ? 04:38:53 25° W 04:41:10 70° NNW 04:45:14 10° ENE visible
27 Sep ? 02:51:20 16° E 02:51:20 16° E 02:52:13 10° E visible
27 Sep ? 04:26:31 34° W 04:28:05 62° NNW 04:32:08 10° ENE visible
28 Sep ? 02:39:02 11° E 02:39:02 11° E 02:39:10 10° E visible
28 Sep ? 04:14:13 46° WNW 04:14:59 55° NNW 04:18:59 10° ENE visible
29 Sep ? 04:02:04 47° NNW 04:02:04 47° NNW 04:05:49 10° NE visible
30 Sep ? 03:50:03 31° NNE 03:50:03 31° NNE 03:52:36 10° NE visible
01 Oct ? 03:38:12 17° NNE 03:38:12 17° NNE 03:39:21 10° NE visible
04 Oct ? 21:00:45 10° NNW 21:01:55 15° N 21:01:55 15° N visible
